Retour au catalogue

SL-8 DEB

ActifLEO
NORAD 21186·DEBRIS·🇷🇺 Russia

Lancé Feb 12, 1991 depuis Plesetsk Cosmodrome

Loading…

Prochains Passages (prochaines 24 heures)

TLE

FraisSource: Space-Track

Époque: Sep 14, 2026, 06:21 UTC

1 21186U 91009AZ  26257.26515265  .00000136  00000-0  15297-2 0  9997
2 21186  74.1072 359.4475 0149108 339.7296  46.9025 12.13116511572811

Suivez SL-8 DEB en temps réel avec AllMySat

Download on the App Store